SICH 2

导读 | 星芒AI

SICH-2 是乌克兰自主研发的一颗地球观测卫星,于2019年9月发射升空。该卫星主要用于农业监测、环境评估和灾害预警,搭载高分辨率光学成像设备,能够提供亚米级精度的图像。SICH-2 是乌克兰“SICH”系列卫星中的第二颗,旨在提升国家在遥感领域的自主能力。其数据广泛应用于土地管理、城市规划和资源勘探等领域,增强了乌克兰对本国及周边地区地表变化的实时监控能力。

基本信息
目录编号:
37794
目录名称:
SICH 2
国际标识:
2011-044G
轨道中心:
EARTH
卫星名称:
SICH 2
卫星全名:
--
卫星状态:
在轨 (已飞行5234 天)
发射日期:
2011-08-17 UTC
国别 :
乌克兰 (UA)
星等 :
--
轨道信息
数据来源 国际轨道数据
星历时间: 2025-12-15T06:04:13+0800
19小时前
查看轨道信息
半长轴: 7054.187km
偏心率: 0.0013029
轨道倾角: 97.820°
近地点辐角 40.959°
升交点赤经 333.141°
平近点角 18.913°
近地点: 666.861km
远地点: 685.243km
周期: 98.272分钟
每日圈数: 14.653196
详细信息
使用方式:
暂无
2D轨道图
3D轨道图
轨道高度分析图
轨道倾角分析图
轨道综合分析图
查看轨道综合分析图